Погода в Гридином

Россия / Республика Карелия     65°55′12″N   34°40′10″E
темп.,
°C
ветер,
м/с
пор.,
м/с
влажн.,
%
обл.,
%
осадки,
мм/ч
давл.,
гПа
погр.,
м
1 декабря, ср
ср100:00−5всв141691100 0.9 9841175
03:00−4всв131589100 1.9 9811284
06:00−4всв111392100 1.7 9801183
09:00−3в101292100 4.1 9801117
12:00−3в101192100 1.8 9821051
15:00−3в101192100 3.1 9821009
18:00−4всв101190100 1.0 984940
21:00−5всв101187100 1.6 985952
2 декабря, чт
чт200:00−5всв91078100 0.2 9861050
03:00−5всв8880100 0.4 9871001
06:00−5св7886100 0.3 988777
09:00−4св8987100 0.7 990782
12:00−3св91078100 0.1 992902
15:00−3св91179100 0.2 994950
18:00−3св91174100 0.1 9961103
21:00−2св101375100 0.2 9971204
3 декабря, пт
пт300:00−3св101276100 0.1 9991078
03:00−3всв91271100 0.2 10011034
06:00−3всв9117095 0.0 10031047
09:00−3всв81070100 0.0 10051066
12:00−3всв91069100 0.1 10061103
15:00−4всв897295 0.2 10081062
18:00−3в101166100 0.3 10091407
21:00−4в111271100 0.5 10101556
4 декабря, сб
сб400:00−4в111371100 0.4 10111664
03:00−5в121463100 0.5 10111564
06:00−5в131563100 0.1 10111491
09:00−5в131564100 0.1 10121365
12:00−6в131567100 0.0 10131253
15:00−6всв11137070 0.0 10141008
18:00−6всв1013715 0.0 1015835
21:00−5всв911715 0.0 1017708
5 декабря, вс
вс500:00−5всв78727 0.0 1018650
03:00−5всв567590 0.0 1020615
06:00−5св558093 0.0 1021591
09:00−6св458494 0.1 1023441
12:00−7ссв238499 0.0 1025406
15:00−8с128382 0.0 1026370
18:00−7ссз228557 0.0 1028276
21:00−8сз339145 0.0 1029218